Regional Weather Roundup
Issued by NWS

Home | Current Version | Previous Version | Text Only | Print | Product List | Glossary On
Versions: 1 2 3 4 5 6 7 8 9 10 11 12 13 14 15 16 17 18 19 20 21 22 23 24 25 26 27 28 29 30 31 32 33 34 35 36 37 38 39 40 41 42 43 44 45 46 47 48 49 50
000
ASUS43 KFSD 290710
RWRSD

WEATHER ROUNDUP FOR SOUTH DAKOTA
NATIONAL WEATHER SERVICE SIOUX FALLS SD
200 AM CDT FRI APR 29 2016

NOTE: "FAIR" INDICATES FEW OR NO CLOUDS BELOW 12,000 FEET WITH NO
SIGNIFICANT WEATHER AND/OR OBSTRUCTIONS TO VISIBILITY.


SDZ001>005-009-010-012>017-290800-
NORTHWEST AND NORTH CENTRAL SOUTH DAKOTA

CITY           SKY/WX    TMP DP  RH WIND       PRES   REMARKS
BUFFALO          N/A     38  32  79 N3        30.06F
FAITH            N/A     36  30  79 NW9       30.13S
MOBRIDGE       PTCLDY    43  38  82 SE7       30.12S
$$

SDZ012>016-024>037-041>051-057-063-072>074-290800-
SOUTHWEST AND SOUTH CENTRAL SOUTH DAKOTA

CITY           SKY/WX    TMP DP  RH WIND       PRES   REMARKS
RAPID CTY ARPT CLOUDY    36  34  92 CALM      30.13S
PIERRE         CLOUDY    42  37  82 NW3       30.13F
CUSTER         CLOUDY    31  28  89 VRB5      30.06F FOG     WCI  26
ELLSWORTH AFB  CLOUDY    37  35  95 NW2       30.12
PHILIP         LGT RAIN  40  37  89 NW3       30.14S
PINE RIDGE     CLOUDY    36  34  92 CALM      30.11F
WINNER         CLOUDY    42  39  89 CALM      30.12F
$$

SDZ004>011-016>023-039-040-290800-
NORTHEAST SOUTH DAKOTA

CITY           SKY/WX    TMP DP  RH WIND       PRES   REMARKS
ABERDEEN       CLOUDY    39  36  89 SW6       30.16S
WATERTOWN      CLOUDY    38  35  89 S5        30.14R
BROOKINGS      MOCLDY    37  35  92 CALM      30.13R
SISSETON         N/A     41  37  86 CALM      30.13S
$$

SDZ017-020-022-023-036>040-048>070-290800-
SOUTHEAST SOUTH DAKOTA

CITY           SKY/WX    TMP DP  RH WIND       PRES   REMARKS
SIOUX FALLS    CLOUDY    39  37  92 CALM      30.13S
HURON          CLOUDY    37  37 100 CALM      30.16R
CHAMBERLAIN    CLOUDY    41  39  92 NE8       30.14F
MITCHELL       CLOUDY    40  37  89 CALM      30.16R
YANKTON        CLOUDY    41  37  87 E6        30.14S
$$

ABBREVIATIONS USED IN REMARKS
   TC - TEMPERATURE IN CELSIUS
  WCI - WIND CHILL INDEX
   HX - HEAT INDEX
  VSB - VISIBILITY





USA.gov is the U.S. government's official web portal to all federal, state and local government web resources and services.